This demonstration page uses our WeatherBlox Daily Observations layout. Learn more.

Left ArrowRight Arrow

Hourly Observations for November 18, 2018

Temp ( °F °C ) Dew Point ( °F °C ) Humidity (%) Winds ( mph kmh ) Pressure ( in mb ) Visibility ( mi km ) Precip ( " mm )
12:53 am 00:53 Clear 36 2.2 32 undefined 86 86 E 5 7 30.26 1025 7 11 N/A
1:53 am 01:53 Clear 35 1.7 32 undefined 89 89 N N/A 30.26 1025 7 11 N/A
2:53 am 02:53 Cloudy 37 2.8 33 0.6 86 86 N N/A 30.25 1024 7 11 N/A
3:53 am 03:53 Cloudy 37 2.8 34 1.1 89 89 E 6 9 30.22 1024 7 11 N/A
4:53 am 04:53 Cloudy 38 3.3 34 1.1 86 86 N N/A 30.22 1023 7 11 N/A
5:53 am 05:53 Clear with Mist and Fog 34 1.1 30 -1.1 85 85 N N/A 30.22 1023 6 10 N/A
6:53 am 06:53 Clear with Mist and Fog 34 1.1 30 -1.1 85 85 ENE 3 6 30.21 1023 6 10 N/A
7:53 am 07:53 Sunny with Mist and Fog 32 undefined 29 -1.7 88 88 N N/A 30.22 1023 3 4 N/A
8:24 am 08:24 Sunny with Mist and Fog 32 undefined 30 -1.1 92 92 N N/A 30.24 1024 3 5 N/A
8:53 am 08:53 Sunny with Mist and Fog 37 2.8 34 1.1 89 89 N N/A 30.22 1023 5 8 N/A
9:53 am 09:53 Sunny 42 5.6 36 2.2 79 79 N N/A 30.22 1023 7 11 N/A
10:53 am 10:53 Sunny 45 7.2 37 2.8 74 74 N N/A 30.20 1023 8 13 N/A
11:53 am 11:53 Sunny 48 8.9 38 3.3 68 68 undefined N/A 30.19 1022 10 16 N/A
12:53 pm 12:53 Sunny 51 10.6 40 4.4 66 66 WSW 5 7 30.16 1022 9 14 N/A
1:53 pm 13:53 Cloudy 52 11.1 40 4.4 64 64 SW 3 6 30.15 1021 9 14 N/A
2:53 pm 14:53 Partly Cloudy 51 10.6 41 5 69 69 NW 8 13 30.14 1021 9 14 N/A
3:53 pm 15:53 Partly Cloudy 48 8.9 40 4.4 74 74 N 8 13 30.15 1021 7 11 N/A
4:53 pm 16:53 Cloudy 48 8.9 40 4.4 74 74 N 5 7 30.15 1021 7 11 N/A
5:53 pm 17:53 Cloudy 46 7.8 39 3.9 77 77 NNW 6 9 30.16 1022 7 11 N/A
6:53 pm 18:53 Cloudy with Haze 45 7.2 38 3.3 77 77 N 7 11 30.17 1022 6 10 N/A
7:53 pm 19:53 Cloudy with Haze 43 6.1 37 2.8 80 80 N 9 15 30.19 1022 6 10 N/A
8:53 pm 20:53 Cloudy with Haze 42 5.6 37 2.8 82 82 N 5 7 30.19 1023 6 10 N/A
9:53 pm 21:53 Cloudy with Haze 42 5.6 37 2.8 82 82 NE 3 6 30.18 1022 6 10 N/A
10:53 pm 22:53 Cloudy with Haze 42 5.6 37 2.8 82 82 NNE 3 6 30.18 1022 5 8 N/A
11:53 pm 23:53 Cloudy with Light Rain 41 5 37 2.8 86 86 N 5 7 30.16 1022 5 8 N/A

Powered by AerisWeather